www.pogodaiklimat.ru
Время
и дата
20:52 18.10
21:52 18.10
22:52 18.10
23:52 18.10
00:52 19.10
01:52 19.10
02:52 19.10
03:52 19.10
04:52 19.10
05:52 19.10
06:52 19.10
07:52 19.10
08:52 19.10
09:52 19.10
10:52 19.10
11:52 19.10
12:52 19.10
13:52 19.10
14:52 19.10
15:52 19.10
16:52 19.10
17:52 19.10
18:52 19.10
19:52 19.10
20:52 19.10
21:52 19.10
22:52 19.10
23:52 19.10
00:52 20.10
01:52 20.10
02:52 20.10
03:52 20.10
04:52 20.10
05:52 20.10
06:52 20.10
07:52 20.10
08:52 20.10
09:52 20.10
10:52 20.10
11:52 20.10
12:52 20.10
13:52 20.10
14:52 20.10
15:52 20.10
16:52 20.10
17:52 20.10
18:52 20.10
19:52 20.10
Ветер
(напр.,м/с)
Видим. Явления Облачность Т
(С)
Тd
(С)
f
(%)
Тe
(С)
Тes
(С)
Комфортность P
(гПа)
Po
(гПа)
Тmin
(С)
Tmax
(С)
R
(мм)
R24
(мм)
S
(см)
СЗ 1 16 км 2/0 2850 м
[Ac]
+15.0 +2.8 44 +14 +14 1018.1 1017.7
штиль 0 16 км ясно +13.3 +3.9 53 +13 +13 1018.7 1018.4
штиль 0 16 км ясно +11.7 +5.6 66 +11 +11 1019.2 1018.7
штиль 0 16 км ясно +12.2 +4.4 59 +12 +12 1019.3 1019.0
штиль 0 16 км ясно +12.2 +4.4 59 +12 +12 1019.6 1019.0 +11.1 +16.1
СЗ 1 16 км ясно +10.6 +2.8 58 +10 +10 1019.9 1019.4
З 1 16 км ясно +11.1 +3.3 59 +10 +10 1020.1 1019.7
штиль 0 16 км ясно +10.0 +4.4 68 +10 +10 1020.5 1020.1
С 1 16 км ясно +8.9 +4.4 73 +7 +7 1020.7 1020.1
штиль 0 16 км ясно +8.9 +5.0 77 +8 +8 1021.0 1020.4
ЮЗ 1 16 км ясно +8.9 +5.0 77 +7 +7 1021.4 1020.7 +8.3 +11.7
ЮЗ 1 16 км ясно +12.2 +5.6 64 +11 +11 1022.0 1021.4
ЮЗ 1 16 км ясно +15.0 +5.0 51 +14 +15 1022.3 1021.7
З 2 16 км ясно +17.2 +4.4 43 +17 +19 1022.2 1021.7
З 2 16 км ясно +20.0 +5.0 37 +21 +25 комфорт 1021.5 1021.1
З 2
{4}
16 км ясно +21.7 +5.6 35 +22 +27 комфорт 1020.8 1020.4
З 3
{4}
16 км ясно +22.2 +5.6 34 +23 +26 комфорт 1019.7 1019.4 +8.9 +22.2
З 2
{5}
16 км ясно +23.3 +5.6 32 +24 +28 комфорт 1018.8 1018.4
З 2 16 км ясно +23.3 +5.6 32 +24 +28 комфорт 1018.3 1017.7
З 2 16 км ясно +23.3 +5.0 30 +23 +26 комфорт 1018.2 1017.7
ЮЗ 1 16 км ясно +21.7 +6.7 38 +22 +24 комфорт 1018.2 1017.7
З 1 16 км ясно +20.0 +6.1 40 +21 +21 комфорт 1018.8 1018.0
ЮЗ 1 16 км ясно +18.9 +6.7 45 +20 +20 1019.3 1018.7 +18.3 +23.9
ЮЗ 1 16 км ясно +17.2 +7.2 52 +17 +17 1019.5 1019.0
З 1 16 км ясно +16.7 +7.2 53 +17 +17 1019.7 1019.4
Ю 1 16 км ясно +16.1 +7.8 58 +16 +16 1020.0 1019.4
З 1 16 км ясно +16.1 +6.7 54 +16 +16 1020.0 1019.7
З 1 16 км ясно +15.6 +6.7 55 +16 +16 1020.0 1019.4
ЮЗ 1 16 км 2/0 7500 м
[Ci]
+15.6 +7.2 57 +16 +16 1019.9 1019.4 +14.4 +18.9
Ю 1 16 км 5/0 7500 м
[Ci]
+15.0 +10.0 72 +14 +14 1020.1 1019.7
Ю 1 16 км 5/0 7500 м
[Ci]
+13.3 +9.4 77 +12 +12 1020.1 1019.7
ЮЗ 1 16 км 5/0 7500 м
[Ci]
+12.8 +7.8 72 +11 +11 1020.1 1019.7
ЮЗ 1 16 км 8/0 4500 м
[Ac Ci]
+12.2 +7.8 74 +11 +11 1020.8 1020.4
ЮЗ 1 16 км 10/0 4500 м
[Ac Ci]
+12.2 +7.2 71 +11 +11 1021.2 1020.7
ЮЗ 1 16 км 8/0 4500 м
[Ac Ci]
+12.8 +8.3 74 +11 +11 1021.3 1020.7 +11.7 +16.7
Ю 1 16 км 2/0 7500 м
[Ci]
+15.0 +8.9 67 +14 +14 1021.9 1021.4
ЮЗ 2 16 км 2/0 7500 м
[Ci]
+18.9 +8.3 50 +19 +20 1022.1 1021.7
З 2 16 км 2/0 7500 м
[Ci]
+22.2 +8.9 43 +24 +26 комфорт 1022.2 1021.7
СЗ 3 16 км ясно +23.3 +7.8 37 +24 +27 комфорт 1021.8 1021.4
СЗ 2 16 км ясно +24.4 +7.8 35 +25 +29 комфорт 1021.0 1020.4
З 2
{4}
16 км ясно +24.4 +7.8 35 +25 +29 комфорт 1020.2 1019.7 +12.8 +24.4
ЮЗ 2 16 км ясно +25.0 +7.8 33 +25 +31 комфорт 1019.4 1019.0
З 2 16 км ясно +25.0 +8.3 35 +25 +30 комфорт 1019.2 1018.7
З 2 16 км ясно +24.4 +7.8 35 +25 +27 комфорт 1018.9 1018.4
ЮЗ 1 16 км ясно +23.3 +7.8 37 +24 +26 комфорт 1018.9 1018.4
ЮЗ 1 16 км ясно +21.7 +7.8 41 +23 +23 комфорт 1019.1 1018.7
Ю 2 16 км ясно +18.9 +12.2 65 +20 +20 1019.4 1019.0 +18.9 +25.6
Ю 1 16 км ясно +17.8 +12.2 70 +18 +18 1019.4 1019.0
Местоположение метеостанции Reagan National Airport: широта 38.8483 долгота -77.0342 высота над уровнем моря 4 м.
В архиве по умолчанию представлена погода в Вашингтоне за последние 1-2 суток. Обновление информации о фактической погоде в базе происходит ежечасно! Архивные данные за месяц целиком и за предыдущие месяцы Вы можете получить, выбрав интересующий диапазон дат из раскрывающегося списка и нажав кнопку "Ввод!".
Внимание! Архив погоды МЕТАР в базе сайта по станциям, не включенным в климатический монитор, хранится не более 60 дней. Нет смысла пытаться выбрать более раннюю дату.
*Определитесь, кто Вы:
Внимание! Время в таблицах - местное (без учета летнего времени). Для получения всемирного времени необходимо вычесть поправку, которая равна -5 ч.
Смотрите также архив погоды в соседних городах и на ближайших метеорологических станциях:
Партнеры нашего сайта:      
Пояснения к столбцам:
  • Ветер - указаны скорость ветра в м/с - средняя за 10 мин, порывы в срок и между сроками (в фигурных скобках) и направление, откуда дует ветер: С - северный,
  • СВ - северо-восточный, В - восточный, ЮВ - юго-восточный, Ю - южный, ЮЗ - юго-западный, З - западный, СЗ - северо-западный.
  • Видимость - горизонтальная дальность видимости в метрах или километрах. При видимости от 1 до 10 км при отсутствии осадков обычно наблюдается дымка, при ухудшении видимости до 1 км и менее - туман. В сухую погоду видимость может ухудшаться дымом, пылью или мглою.
  • Явления - указаны атмосферные явления, наблюдавшиеся в срок или в последний час перед сроком; фигурными скобками обозначены явления, наблюдавшиеся между сроками (за 1-3 часа до срока); квадратными скобками обозначены град или гололедные отложения с указанием их диаметра в мм.
  • Облачность - указаны через наклонную черту общая и нижняя облачность в баллах и высота нижней границы облаков в метрах; квадратными скобками обозначены формы облаков: Ci - перистые, Cs - перисто-слоистые, Cc - перисто-кучевые, Ac - высококучевые, As - высокослоистые, Sc - слоисто-кучевые, Ns - слоисто-дождевые, Cu - кучевые, Cb - кучево-дождевые. Подробнее классификацию облаков см. в Атласе облаков (PDF).
  • T - Температура воздуха - температура, измеренная на высоте 2 м над землей.
  • Td - Температура точки росы - температура, при понижении до которой содержащийся в воздухе водяной пар достигнет насыщения.
  • f - Относительная влажность воздуха - влажноcть воздуха, измеренная на высоте 2 м над землей.
  • Te - Эффективная температура - температура, которую ощущает одетый по сезону человек в тени. Характеристика душности погоды. При расчете учитывается влияние влажности воздуха и скорости ветра на теплоощущения человека.
  • Tes - Эффективная температура на солнце - температура, которую ощущает человек, с поправкой на солнечный нагрев. Характеристика знойности погоды. Зависит от высоты солнца над горизонтом, облачности и скорости ветра. Ночью, в пасмурную погоду, а также при ветре 12 м/с и более поправка равна нулю.
  • P - Атмосферное давление - приведенное к уровню моря атмосферное давление.
  • Po - Атмосферное давление - измеренное на уровне метеостанции атмосферное давление.
  • Tmin - Минимальная температура - минимум температуры воздуха на высоте 2 м над землей.
  • Tmax - Максимальная температура - максимум температуры воздуха на высоте 2 м над землей.
  • R - Количество осадков - Количество выпавших осадков за период времени, мм. При наведении курсора мыши на число - период времени, за который выпало указанное количество осадков.
  • R24 - Количество осадков - Количество выпавших осадков за 24 часа, мм.
  • S - Снежный покров - Высота снежного покрова, см. При наведении курсора мыши на число - состояние снежного покрова и степень покрытия местности в баллах.